Tracking 19242 objects as of 16-Aug-2018
HD Live streaming from Space Station
objects crossing your sky now

UNSW-ECO

Track UNSW-ECO now!
10-day predictions
UNSW-ECO is classified as:


NORAD ID: 42723
Int'l Code: 1998-067MC
Perigee: 338.6 km
Apogee: 342.4 km
Inclination: 51.6 °
Period: 91.2 minutes
Semi major axis: 6711 km
RCS: Unknown
Launch date: November 20, 1998
Source: United States (US)
Launch site: TYURATAM MISSILE AND SPACE COMPLEX (TTMTR)
Uplink (MHz):
Downlink (MHz): 436.525/2400.500
Beacon (MHz):
Mode: 4800bps GMSK
Call sign: ON02AU
Status: Active

aabbcc
Your satellite tracking list
Your tracking list is empty




NASA's NSSDC Master Catalog

Two Line Element Set (TLE):
1 42723U 98067MC  18228.10057420  .00060679  00000-0  33595-3 0  9994
2 42723  51.6392  44.3228 0002846 113.1248 247.0053 15.78979397 70114
Source of the keplerian elements: AFSPC